Temperature
22 23 25 25 25 25 24 22 22 22 22 22 22 23 23 23 24 23 23 24 24 24 23 23 23 23 23 22 22 22 22 21 21 21 20 20 20 20 20 19 19 19 19 19
22 23 24 24 25 25 25 24 23 23 22 22 22 23 23 23 23 22 23 23 24 24 24 23 23 23 23 22 22 22 21 21 21 21 20 20 20 20 19 19 19 19 19 19
19 21 23 22 23 24 23 23 22 22 21 21 21 21 21 22 23 22 23 23 23 23 23 23 23 22 22 22 22 21 21 21 20 20 20 20 19 19 19 19 19 19 18 18
18 20 21 21 22 24 23 22 22 21 21 21 20 21 21 22 22 22 22 22 22 23 23 23 22 22 22 22 21 21 21 21 20 20 20 20 19 19 19 19 19 19 18 18
17 18 20 21 22 23 22 21 21 21 20 20 21 21 20 21 22 22 22 22 22 22 22 22 22 22 21 21 21 21 20 20 20 20 20 19 19 19 18 18 18 18 18 18
17 19 19 20 21 23 22 20 20 20 19 20 20 18 19 21 21 22 22 22 22 22 22 22 22 21 21 21 20 20 20 20 20 20 20 19 19 18 18 18 18 18 17 17
17 18 18 19 20 21 20 19 20 20 20 20 19 19 20 21 21 21 21 21 21 21 21 21 21 21 20 20 20 20 20 19 19 19 19 19 18 18 18 18 17 17 17 17
15 17 17 19 19 18 17 19 19 20 20 20 20 20 20 20 20 21 20 20 20 20 20 20 20 20 20 19 19 19 19 19 19 18 18 18 18 18 17 17 17 17 16 16
15 16 17 18 18 19 19 19 19 19 20 20 19 19 19 19 20 20 20 19 19 19 19 19 19 19 19 19 19 18 18 18 18 18 18 17 17 17 17 17 16 16 16 16
14 15 16 17 18 18 18 18 18 19 19 19 19 19 19 19 19 19 19 19 19 19 18 18 18 18 18 18 18 18 18 18 17 17 17 17 17 17 16 16 16 16 16 15
14 14 16 17 17 17 17 18 18 18 18 18 18 18 18 18 18 18 18 18 18 18 18 18 18 17 17 17 17 17 17 17 17 17 16 16 16 16 16 16 15 15 15 15
13 14 14 15 16 16 17 17 17 17 17 18 18 17 17 17 17 17 17 17 17 17 17 17 17 17 17 17 17 17 17 16 16 16 16 16 15 15 15 15 15 15 15 15
15 15 15 16 16 16 16 16 17 17 17 17 17 17 17 17 17 17 17 17 17 17 17 17 17 16 16 16 16 16 16 16 15 15 15 15 15 15 14 14 14 14 14 14
15 15 15 15 15 16 16 16 16 16 16 17 16 16 16 16 16 16 16 16 16 16 16 16 16 16 16 16 16 16 15 15 15 15 15 15 14 14 14 14 14 13 13 13
15 15 15 15 15 15 15 15 15 15 15 16 16 15 15 15 15 15 15 15 15 15 15 15 15 15 15 15 15 15 15 15 14 14 14 14 14 14 14 13 13 13 13 12
14 14 15 14 14 14 14 15 15 15 15 15 15 14 15 15 14 14 14 14 14 14 14 14 15 15 15 15 15 14 14 14 14 14 14 14 13 13 13 13 13 12 12 12
14 14 14 14 14 14 14 14 14 14 14 14 14 14 14 14 14 13 13 13 14 14 14 14 14 14 14 14 14 14 14 13 13 13 13 13 13 13 12 12 12 12 12 12
13 13 13 13 13 13 13 13 13 14 13 13 13 13 13 13 13 13 13 13 13 13 13 13 14 14 14 13 13 13 13 13 13 13 13 12 12 12 12 12 12 12 11 11
13 13 13 13 13 13 13 13 13 13 13 13 13 13 13 13 12 12 13 13 13 13 13 13 13 13 13 13 13 13 13 13 13 12 12 12 12 12 12 11 11 11 11 11
13 13 13 13 13 13 12 12 12 12 12 12 12 12 12 12 12 12 12 12 12 12 12 12 12 12 12 12 12 12 12 12 12 12 12 12 12 11 11 11 11 11 10 10
12 12 12 12 12 12 12 12 12 12 12 12 12 12 12 12 12 12 12 12 12 12 12 12 12 12 12 12 12 12 12 12 12 12 12 11 11 11 11 10 10 10 10 10
12 12 12 12 12 12 12 12 12 12 12 12 12 11 12 12 12 12 12 12 12 12 12 12 12 12 12 12 12 12 11 11 11 11 11 11 10 10 10 10 10 10 9 9
12 12 12 11 11 11 11 11 11 11 11 11 11 11 11 11 11 11 11 11 11 11 12 11 11 11 11 11 11 11 11 11 11 10 10 10 10 10 9 9 9 9 9 9
11 11 11 11 11 11 11 11 11 11 11 11 11 11 11 11 11 11 11 11 11 11 11 11 11 11 11 11 11 10 10 10 10 10 10 9 9 9 9 9 8 8 8 8
11 11 11 11 11 11 11 11 11 11 11 11 11 11 11 11 11 11 11 11 11 11 10 10 10 10 10 10 10 10 10 9 9 9 9 9 9 8 8 8 8 8 8 8
11 11 11 11 11 11 11 11 11 10 10 10 10 10 10 11 10 10 10 10 10 10 10 10 10 10 10 10 9 9 9 9 9 9 8 8 8 8 8 8 8 7 7 7
11 11 11 11 11 11 11 11 10 10 10 10 10 10 10 10 10 10 10 10 10 10 9 9 9 9 9 9 9 9 9 8 8 8 8 8 8 7 7 7 7 7 7 7
Wind_Speed
3 4 2 2 4 2 2 6 7 7 7 7 6 6 6 7 8 8 7 6 7 8 8 8 7 8 8 8 9 9 9 8 8 7 6 6 5 5 5 5 6 5 5 4
4 4 3 3 5 3 2 2 4 5 4 4 3 4 5 7 8 8 6 5 6 7 8 8 9 8 8 8 9 9 9 8 7 7 6 6 5 5 4 4 4 4 5 5
3 5 4 4 4 2 1 0 4 4 5 3 5 5 4 6 8 8 7 5 5 6 7 7 8 8 8 9 8 8 8 7 6 6 6 6 6 5 5 5 4 4 4 4
0 3 3 7 3 3 5 3 2 3 4 6 6 4 4 4 5 5 5 5 5 5 5 5 6 7 7 7 8 8 7 7 6 6 6 5 5 5 5 4 4 4 3 4
3 1 4 5 3 1 4 2 3 5 6 6 5 6 4 3 3 4 4 4 4 5 6 5 5 6 7 6 6 7 7 6 6 6 5 5 5 4 4 4 3 3 3 3
3 3 5 5 5 3 5 1 3 4 6 5 5 4 2 2 2 3 3 3 3 4 5 5 4 6 7 6 6 6 6 6 5 5 6 6 5 4 3 4 4 3 3 3
4 3 5 6 6 4 3 4 2 3 3 4 3 5 5 2 2 3 3 3 4 5 4 3 3 5 6 5 5 5 5 4 4 4 5 5 5 4 4 4 4 3 3 2
4 3 5 4 4 3 4 3 1 1 2 2 2 3 3 4 4 4 4 4 4 4 2 1 3 5 5 4 4 4 4 4 4 4 4 4 4 4 4 5 5 4 3 1
5 5 4 1 2 3 3 1 0 0 1 3 3 3 3 3 3 3 3 3 3 3 2 1 1 4 5 3 3 4 4 4 4 3 3 4 4 4 4 3 4 4 3 3
1 1 2 3 4 4 2 1 1 1 1 2 3 3 3 3 2 2 2 2 2 3 2 1 1 3 4 4 4 4 4 4 3 3 2 2 3 3 4 4 3 4 4 3
1 3 5 5 5 6 5 3 3 2 1 2 4 3 3 2 2 1 1 1 2 2 2 1 1 1 2 3 4 4 4 3 3 3 4 3 2 1 3 3 5 5 4 5
4 4 2 5 6 6 5 3 2 2 1 1 3 3 3 2 1 1 1 1 1 1 1 1 1 1 2 3 4 5 3 3 3 2 2 3 3 1 3 1 2 4 4 5
4 3 3 4 5 5 4 3 1 0 1 1 1 3 3 2 1 2 1 1 1 1 1 1 1 1 2 3 3 4 4 4 3 3 3 3 4 4 1 2 1 1 3 4
2 0 3 4 4 4 4 3 2 1 1 2 2 2 2 2 2 1 1 1 1 1 1 1 1 1 2 2 3 3 3 4 3 3 3 3 4 4 3 3 1 1 1 3
3 3 4 3 3 3 2 1 1 1 2 1 1 2 3 2 2 1 1 1 1 1 1 1 1 2 1 2 3 3 3 3 3 3 3 3 3 3 3 3 3 1 1 1
4 2 2 3 3 2 2 1 0 1 1 1 1 1 1 2 2 1 1 1 2 1 0 1 1 2 1 2 2 2 2 3 3 3 3 3 3 3 3 3 3 2 2 2
3 3 3 3 4 3 2 2 2 2 0 1 1 0 1 2 1 1 1 1 1 1 1 1 1 0 1 2 2 2 1 1 2 2 2 3 3 3 3 3 3 3 2 3
5 5 5 4 2 2 1 1 0 1 1 0 0 1 1 2 1 0 1 1 2 2 1 0 0 1 1 2 2 2 2 1 1 2 2 2 2 3 3 3 3 3 2 2
0 0 0 1 1 2 2 1 1 0 1 0 1 1 1 1 1 1 1 3 3 1 2 1 2 2 2 2 2 2 2 1 1 1 2 3 2 2 3 3 3 3 3 3
3 2 2 2 2 2 1 1 1 1 1 1 2 2 2 1 1 2 3 2 0 1 1 1 2 2 1 1 2 2 2 2 2 2 2 2 2 2 3 3 3 3 3 3
3 4 4 3 2 1 1 1 2 1 1 3 4 3 2 1 2 3 4 2 2 1 2 2 2 1 1 2 3 3 3 3 3 2 2 2 2 3 3 3 3 4 3 3
3 3 3 4 4 3 2 3 3 4 4 4 4 3 3 2 3 4 3 2 0 2 2 2 2 2 3 4 3 3 3 3 3 3 3 3 3 3 3 3 3 3 3 3
3 3 3 3 4 4 4 5 5 4 4 4 3 3 3 3 3 4 3 1 2 4 3 3 3 4 5 4 3 3 4 4 4 4 3 4 4 3 3 4 4 3 3 3
3 3 3 3 5 6 5 3 4 4 4 4 4 4 4 4 4 3 3 3 4 5 4 3 5 5 5 4 4 4 4 4 4 4 4 4 4 4 4 4 4 3 3 3
2 3 4 5 5 3 3 3 4 5 5 5 5 4 4 4 4 3 3 4 5 6 4 5 5 5 4 4 4 5 4 4 4 4 4 4 4 4 3 3 3 3 2 2
3 3 4 4 3 3 3 3 3 3 4 4 4 4 4 4 4 4 4 5 6 6 4 3 4 4 4 4 5 5 4 4 5 4 4 3 3 3 3 3 3 2 2 1
4 4 3 3 3 3 3 3 3 3 3 4 4 3 3 4 4 4 5 5 4 4 4 3 3 4 4 5 5 5 4 4 4 4 4 3 3 3 3 3 2 2 2 2
Wind_Direction
229 247 257 283 287 281 189 185 182 206 199 213 201 174 160 149 137 129 138 146 155 161 168 166 164 167 175 179 173 168 166 174 184 187 185 179 179 181 183 187 193 191 193 200
336 315 327 313 289 268 226 188 175 165 206 221 167 115 112 121 126 129 140 157 166 168 164 166 170 170 171 173 170 165 170 180 183 181 180 179 182 182 180 186 188 184 193 196
294 310 6 309 270 178 116 99 150 182 215 158 117 112 133 138 135 140 148 158 168 171 168 173 175 171 173 171 165 163 169 174 177 178 179 182 182 175 180 188 187 189 197 190
129 26 232 249 271 114 111 70 65 125 138 135 135 136 105 94 115 131 146 157 163 165 168 171 170 166 162 160 159 163 168 171 171 173 179 181 176 181 187 185 183 188 190 186
125 189 271 295 323 46 115 40 28 108 116 118 127 88 48 44 99 137 153 155 157 156 157 160 157 152 142 141 148 155 167 173 175 175 174 175 181 186 183 173 170 170 170 167
142 167 223 251 304 322 96 28 355 100 125 131 107 110 242 287 98 94 106 115 123 127 123 128 148 147 141 150 157 171 179 179 174 174 176 179 183 181 176 169 173 163 162 174
171 200 255 279 307 39 112 226 276 121 144 147 153 184 197 170 96 88 85 91 108 112 116 139 144 138 147 159 178 188 175 163 166 180 181 182 180 173 166 163 158 157 163 186
155 187 247 316 37 109 204 245 257 121 145 134 138 135 133 121 102 86 73 69 89 106 109 111 130 133 145 175 188 171 158 162 175 185 186 176 168 171 165 159 161 168 166 178
180 207 241 307 141 176 166 145 27 61 168 131 132 130 122 119 113 104 97 92 97 113 104 65 155 158 165 191 172 156 153 162 174 182 182 169 164 168 169 168 176 184 181 195
23 293 324 19 40 23 32 59 85 104 108 127 137 139 121 115 111 100 100 104 96 96 116 170 175 177 177 174 161 150 153 161 162 161 160 154 153 161 169 178 184 190 190 201
324 307 347 357 7 357 347 17 34 41 81 131 133 136 131 131 138 132 116 128 118 131 168 196 186 199 188 168 152 148 158 162 159 160 160 153 146 166 180 193 191 191 202 199
235 241 241 287 315 341 347 352 27 39 14 84 144 148 145 157 179 152 130 115 109 110 144 185 174 215 207 182 166 158 162 162 166 165 161 158 147 93 32 136 172 172 183 186
227 249 244 289 320 342 343 333 336 220 192 169 168 158 161 168 170 156 143 142 169 195 218 211 183 262 240 192 170 163 172 176 174 169 168 170 166 160 157 0 29 165 179 181
237 314 303 307 300 321 332 329 349 351 289 199 188 162 145 128 109 119 203 224 215 201 202 170 153 282 264 176 156 163 169 175 174 175 173 174 176 176 177 176 187 317 301 197
258 216 232 282 306 309 313 348 18 342 325 314 123 132 132 128 124 161 261 271 116 98 133 132 119 287 258 151 150 161 166 171 173 179 178 179 177 173 176 176 173 200 311 329
250 268 294 307 291 290 313 359 5 293 314 14 28 31 156 148 150 161 138 114 110 121 171 126 265 267 195 141 139 154 175 171 166 171 176 174 172 169 176 180 175 182 199 207
228 246 252 274 274 265 257 232 202 215 346 51 27 41 114 108 91 73 36 48 117 162 160 171 253 313 108 135 141 148 144 147 158 167 179 179 175 177 183 184 186 194 208 190
216 222 216 213 230 251 261 230 108 69 58 10 49 71 82 95 97 197 193 97 74 44 7 51 72 66 83 107 124 128 125 144 182 184 177 173 174 176 173 173 175 177 173 157
66 100 219 200 189 168 172 184 164 180 200 108 138 176 172 187 208 186 108 97 97 68 324 349 50 76 84 82 96 121 121 128 145 141 142 150 152 154 159 159 159 162 154 149
52 56 55 67 91 113 119 120 113 115 123 119 119 111 106 124 129 103 92 91 135 218 227 72 72 72 72 83 77 91 94 100 105 103 111 126 130 131 132 135 137 136 131 128
70 70 72 73 74 88 108 123 117 106 102 108 112 119 114 99 98 100 99 78 348 31 72 81 73 73 79 82 77 86 85 82 80 86 94 105 111 115 118 121 123 125 124 122
59 68 74 81 79 70 65 83 106 106 96 95 100 109 103 91 87 81 79 109 100 72 75 70 68 74 80 84 81 82 79 75 75 79 88 95 105 108 112 116 112 110 111 114
67 66 72 85 98 96 74 71 82 94 97 104 113 110 105 101 99 102 84 28 64 76 76 67 68 69 73 72 74 82 79 78 82 85 89 90 90 95 100 106 105 105 107 104
72 66 72 88 93 87 78 72 76 77 79 89 94 102 106 95 74 79 104 91 82 82 76 66 63 62 65 64 69 76 76 81 85 83 82 84 83 82 86 93 95 91 95 97
101 95 91 95 96 98 98 82 72 72 72 68 67 68 78 95 100 92 85 82 84 87 74 60 60 64 68 70 75 79 80 83 86 86 85 88 90 92 92 95 99 102 102 100
113 109 105 108 115 114 106 93 85 82 85 79 65 58 65 75 86 87 82 79 78 83 79 67 63 69 74 76 77 81 83 82 80 84 86 88 88 91 89 88 88 92 90 84
98 97 94 94 93 101 101 98 96 94 98 99 86 68 71 76 82 83 84 83 81 82 80 75 72 75 76 78 82 83 81 79 80 80 82 83 83 83 81 82 81 72 63 69
Height
1469 1465 1462 1463 1463 1462 1467 1474 1483 1480 1478 1472 1467 1465 1464 1466 1467 1469 1472 1474 1476 1478 1481 1483 1485 1488 1492 1495 1497 1500 1502 1504 1506 1508 1509 1510 1511 1512 1513 1514 1515 1516 1516 1517
1471 1463 1461 1463 1460 1459 1461 1464 1468 1470 1472 1464 1464 1463 1464 1465 1467 1469 1471 1473 1474 1476 1478 1480 1483 1486 1489 1492 1494 1497 1499 1501 1503 1505 1506 1507 1508 1509 1510 1511 1512 1513 1513 1514
1482 1470 1466 1474 1462 1460 1462 1462 1465 1472 1469 1464 1464 1465 1465 1465 1466 1468 1470 1472 1473 1474 1476 1478 1481 1484 1486 1489 1492 1494 1496 1499 1501 1502 1503 1504 1505 1506 1507 1507 1508 1509 1510 1511
1485 1480 1488 1473 1456 1454 1458 1462 1461 1462 1463 1463 1464 1465 1467 1467 1468 1469 1470 1471 1472 1473 1475 1478 1480 1481 1483 1486 1489 1491 1493 1495 1497 1499 1500 1502 1503 1503 1504 1504 1504 1505 1506 1507
1489 1490 1482 1467 1457 1456 1461 1467 1462 1462 1463 1465 1465 1466 1469 1469 1469 1470 1470 1471 1471 1472 1474 1476 1478 1480 1481 1484 1486 1488 1490 1492 1494 1496 1497 1498 1499 1500 1501 1501 1501 1502 1502 1503
1486 1488 1488 1471 1457 1453 1457 1471 1463 1462 1463 1465 1464 1472 1472 1470 1469 1470 1470 1471 1471 1472 1473 1474 1476 1477 1479 1481 1483 1485 1487 1489 1491 1492 1494 1495 1496 1497 1498 1498 1498 1499 1499 1499
1483 1485 1478 1463 1456 1454 1472 1475 1464 1462 1463 1464 1465 1467 1468 1468 1469 1469 1470 1470 1470 1471 1472 1473 1475 1476 1477 1478 1480 1482 1484 1485 1487 1489 1490 1491 1493 1493 1494 1494 1495 1495 1495 1496
1482 1486 1482 1461 1459 1464 1467 1463 1462 1461 1462 1463 1464 1465 1466 1467 1468 1468 1469 1469 1469 1469 1470 1471 1473 1474 1475 1476 1477 1479 1481 1482 1484 1485 1486 1488 1489 1489 1490 1490 1491 1492 1492 1492
1475 1476 1466 1462 1461 1461 1461 1460 1460 1460 1460 1462 1463 1464 1464 1465 1467 1467 1468 1468 1469 1468 1468 1470 1471 1472 1473 1474 1476 1477 1478 1479 1481 1482 1483 1484 1485 1485 1486 1487 1487 1488 1488 1488
1470 1467 1464 1462 1461 1460 1459 1458 1458 1458 1459 1460 1461 1462 1463 1464 1465 1466 1466 1467 1467 1467 1467 1468 1469 1470 1471 1472 1473 1474 1475 1476 1477 1478 1479 1480 1481 1482 1482 1483 1483 1483 1483 1484
1470 1466 1463 1461 1461 1460 1459 1457 1456 1457 1458 1459 1460 1461 1462 1463 1464 1464 1465 1466 1466 1466 1466 1466 1467 1468 1468 1469 1470 1471 1471 1472 1473 1474 1475 1476 1477 1478 1478 1479 1480 1480 1480 1481
1470 1465 1465 1463 1461 1459 1457 1456 1456 1456 1457 1457 1459 1459 1460 1461 1462 1462 1463 1463 1464 1464 1464 1464 1465 1465 1466 1466 1467 1467 1468 1469 1470 1471 1472 1472 1473 1474 1475 1476 1476 1477 1477 1478
1463 1462 1463 1461 1460 1458 1457 1456 1456 1456 1456 1456 1457 1458 1458 1459 1460 1460 1461 1461 1461 1461 1461 1462 1462 1462 1463 1464 1464 1465 1465 1466 1467 1467 1468 1469 1469 1470 1470 1471 1472 1473 1473 1474
1460 1460 1460 1459 1458 1457 1456 1455 1455 1455 1455 1455 1454 1455 1456 1456 1457 1458 1459 1459 1459 1459 1458 1459 1459 1459 1460 1461 1461 1462 1462 1463 1463 1464 1465 1466 1466 1467 1467 1467 1468 1468 1469 1469
1457 1457 1457 1457 1456 1456 1455 1455 1454 1454 1454 1453 1453 1452 1453 1453 1453 1454 1456 1456 1456 1456 1456 1456 1456 1457 1457 1458 1458 1459 1459 1460 1460 1461 1462 1462 1462 1463 1463 1463 1464 1464 1464 1465
1453 1454 1454 1454 1454 1454 1454 1453 1452 1452 1451 1451 1451 1450 1450 1450 1451 1452 1453 1453 1453 1453 1453 1453 1454 1454 1455 1455 1456 1456 1457 1457 1457 1458 1458 1458 1459 1459 1459 1460 1460 1461 1461 1462
1449 1449 1450 1451 1451 1451 1451 1451 1451 1451 1450 1449 1448 1449 1449 1448 1449 1449 1450 1450 1451 1451 1451 1451 1451 1452 1452 1453 1453 1453 1454 1454 1454 1455 1455 1455 1455 1455 1456 1457 1457 1457 1458 1459
1445 1445 1446 1447 1448 1448 1448 1449 1449 1448 1448 1448 1448 1447 1447 1448 1448 1448 1449 1449 1449 1449 1450 1450 1450 1450 1451 1451 1451 1451 1451 1451 1451 1452 1452 1452 1452 1452 1453 1453 1454 1454 1454 1455
1440 1441 1442 1443 1444 1445 1445 1446 1446 1446 1446 1446 1446 1446 1447 1447 1447 1447 1447 1447 1447 1447 1448 1449 1449 1449 1449 1449 1449 1449 1449 1449 1449 1449 1450 1450 1449 1449 1449 1450 1451 1451 1452 1452
1438 1438 1439 1440 1441 1442 1442 1442 1443 1443 1444 1444 1445 1445 1445 1445 1445 1445 1445 1446 1446 1447 1447 1448 1448 1448 1448 1447 1447 1447 1447 1447 1448 1448 1448 1448 1447 1447 1448 1448 1449 1449 1450 1450
1438 1438 1439 1439 1439 1440 1440 1440 1441 1442 1443 1443 1443 1444 1444 1445 1445 1445 1445 1446 1447 1447 1447 1447 1447 1447 1447 1446 1446 1446 1446 1446 1446 1446 1446 1446 1446 1446 1447 1447 1447 1448 1448 1448
1439 1439 1438 1438 1439 1439 1439 1439 1439 1441 1442 1443 1444 1444 1445 1445 1445 1445 1446 1447 1447 1447 1447 1446 1446 1446 1446 1446 1446 1445 1445 1445 1445 1445 1445 1445 1445 1445 1446 1446 1446 1447 1447 1447
1439 1439 1439 1439 1440 1440 1441 1441 1441 1441 1442 1443 1444 1444 1445 1445 1446 1446 1447 1448 1447 1447 1447 1447 1447 1446 1446 1445 1445 1445 1445 1445 1445 1444 1444 1444 1444 1445 1445 1445 1445 1446 1446 1446
1441 1441 1442 1442 1442 1442 1443 1443 1443 1443 1444 1445 1445 1446 1446 1446 1447 1447 1448 1448 1448 1447 1447 1447 1447 1446 1446 1445 1445 1446 1446 1445 1445 1445 1445 1445 1444 1445 1445 1445 1445 1445 1445 1446
1443 1443 1444 1444 1444 1445 1445 1446 1446 1446 1446 1446 1447 1448 1448 1448 1448 1448 1448 1448 1448 1448 1448 1447 1447 1447 1447 1447 1447 1447 1447 1446 1446 1446 1446 1446 1445 1446 1446 1446 1446 1446 1446 1446
1445 1445 1446 1446 1447 1447 1447 1447 1447 1448 1448 1448 1449 1449 1450 1450 1450 1449 1450 1449 1449 1449 1449 1449 1449 1449 1448 1448 1448 1448 1448 1448 1447 1447 1447 1447 1447 1447 1446 1446 1446 1446 1446 1445
1447 1447 1448 1448 1449 1449 1449 1449 1449 1450 1450 1451 1451 1452 1452 1451 1451 1451 1451 1451 1451 1451 1451 1451 1450 1450 1450 1450 1450 1449 1449 1449 1448 1448 1448 1448 1448 1447 1447 1447 1447 1446 1445 1445